Location: Unnamed
(25.2826°S, 57.6099°W)
Time: 23:03:35
(UTC-04:00)

Hubble Space Telescope - Pass Details

Date: 23 January 2026
Orbit: 478 x 479 km, 28.5° (Epoch: 18 February)

Event Time Altitude Azimuth Distance (km) Brightness Sun altitude
Exits shadow 04:36:50 - 338° (NNW) 1,903 3.1 -9.7°
Reaches altitude 10° 04:37:47 10° 348° (NNW) 1,642 2.9 -9.5°
Maximum altitude 04:40:11 16° 27° (NNE) 1,311 2.8 -9.0°
Drops below altitude 10° 04:42:35 10° 67° (ENE) 1,648 3.9 -8.5°
Sets 04:45:25 0° 89° (E) 2,530 5.5 -8.0°
